Hamilton, OH

4:29 PM EST on December 18, 2017 (GMT -0500)
Butler County Regional

Weather History for KHAO - December, 2012

Change the Weather History Date:

Monday, December 31, 2012

  Actual Average (KLUK) Record (KLUK)
Temperature  
Mean Temperature 26 °F -  
Max Temperature 37 °F 40 °F 70 °F (1951)
Min Temperature 15 °F 26 °F 3 °F (1976)
Degree Days  
Heating Degree Days 39    
Moisture  
Dew Point 27 °F    
Average Humidity 81    
Maximum Humidity 91    
Minimum Humidity 64    
Precipitation  
Precipitation 0.01 in - - ()
Sea Level Pressure  
Sea Level Pressure 30.18 in    
Wind  
Wind Speed 4 mph (SW)    
Max Wind Speed 9 mph    
Max Gust Speed 18 mph    
Visibility 8 miles    
Events Snow    
Averages and records for this station are not official NWS values.
T = Trace of Precipitation, MM = Missing Value Source: NWS Daily Summary

Daily Weather History Graph

Daily Weather History Graph

Search for Another Location

Airport or City:

Trip Planner

Search our weather history database for the weather conditions in past years. The results will help you decide how hot, cold, wet, or windy it might be!

Date:

Astronomy

Dec. 31, 2012 Rise Set
Actual Time 7:57 AM EST 5:24 PM EST
Civil Twilight 7:27 AM EST 5:55 PM EST
Nautical Twilight 6:54 AM EST 6:28 PM EST
Astronomical Twilight 6:21 AM EST 7:01 PM EST
Moon 8:53 PM EST (12/31) 9:40 AM EST (12/31)
Length of Visible Light 10h 27m
Length of Day
9h 26m
Waning Gibbous, 90% of the Moon is Illuminated
Dec 31
Waning Gibbous
Jan 4
Last Quarter
Jan 11
New
Jan 18
First Quarter
Jan 26
Full

Hourly Weather History & Observations

Time (EST) Temp. Windchill Dew Point Humidity Pressure Visibility Wind Dir Wind Speed Gust Speed Precip Events Conditions
12:53 AM 15.1 °F 9.4 °F 12.9 °F 91% 30.35 in 5.0 mi SE 3.5 mph - N/A   Clear
1:53 AM 19.9 °F - 17.1 °F 89% 30.33 in 7.0 mi Calm Calm - N/A   Clear
2:53 AM 18.0 °F 12.7 °F 15.1 °F 88% 30.31 in 6.0 mi ESE 3.5 mph - N/A   Clear
3:53 AM 19.9 °F - 16.0 °F 85% 30.31 in 7.0 mi Calm Calm - N/A   Clear
4:53 AM 19.9 °F 12.1 °F 17.1 °F 89% 30.28 in 8.0 mi South 5.8 mph - N/A   Clear
5:53 AM 30.0 °F 25.2 °F 23.0 °F 75% 30.27 in 10.0 mi SSW 4.6 mph - N/A   Clear
6:53 AM 28.9 °F - 23.0 °F 78% 30.26 in 10.0 mi Calm Calm - N/A   Clear
7:53 AM 30.9 °F 26.2 °F 23.0 °F 72% 30.26 in 10.0 mi WSW 4.6 mph - N/A   Clear
9:53 AM 34.0 °F 26.6 °F 24.1 °F 67% 30.24 in 10.0 mi SW 9.2 mph - N/A   Overcast
10:53 AM 35.1 °F 27.9 °F 24.1 °F 64% 30.25 in 10.0 mi SW 9.2 mph 18.4 mph N/A   Overcast
11:53 AM 36.0 °F 29.6 °F 25.0 °F 64% 30.23 in 10.0 mi SW 8.1 mph 17.3 mph N/A   Overcast
12:53 PM 36.0 °F 32.1 °F 25.0 °F 64% 30.17 in 9.0 mi WSW 4.6 mph - N/A   Overcast
1:53 PM 37.0 °F 33.3 °F 26.1 °F 65% 30.14 in 10.0 mi WSW 4.6 mph - N/A   Overcast
2:34 PM 35.6 °F 29.9 °F 28.4 °F 75% 30.13 in 9.0 mi WSW 6.9 mph - 0.00 in   Overcast
2:53 PM 35.1 °F 30.1 °F 30.0 °F 82% 30.16 in 3.0 mi WSW 5.8 mph - 0.00 in Snow Light Snow
3:05 PM 35.6 °F 31.7 °F 30.2 °F 81% 30.14 in 4.0 mi SW 4.6 mph - 0.00 in Snow Light Snow
3:50 PM 35.6 °F 31.7 °F 30.2 °F 81% 30.14 in 8.0 mi SSW 4.6 mph - 0.00 in   Overcast
3:53 PM 35.1 °F 30.1 °F 30.9 °F 85% 30.16 in 8.0 mi SW 5.8 mph - 0.00 in   Overcast
4:53 PM 35.1 °F 31.0 °F 30.0 °F 82% 30.14 in 8.0 mi SW 4.6 mph - N/A   Overcast
5:14 PM 35.6 °F 31.7 °F 30.2 °F 81% 30.11 in 9.0 mi SW 4.6 mph - N/A   Overcast
5:30 PM 33.8 °F 30.8 °F 30.2 °F 87% 30.12 in 10.0 mi WSW 3.5 mph - N/A   Overcast
5:53 PM 34.0 °F 29.8 °F 30.0 °F 85% 30.13 in 5.0 mi SW 4.6 mph - 0.00 in Snow Light Snow
6:29 PM 33.8 °F 28.6 °F 30.2 °F 87% 30.13 in 7.0 mi SW 5.8 mph - 0.00 in   Overcast
6:53 PM 34.0 °F 29.8 °F 30.9 °F 89% 30.15 in 9.0 mi SW 4.6 mph - 0.00 in   Overcast
7:25 PM 33.8 °F 27.7 °F 30.2 °F 87% 30.11 in 10.0 mi SW 6.9 mph - N/A   Overcast
7:36 PM 35.6 °F 31.7 °F 30.2 °F 81% 30.11 in 10.0 mi SW 4.6 mph - N/A   Overcast
7:53 PM 35.1 °F 30.1 °F 30.9 °F 85% 30.13 in 10.0 mi SW 5.8 mph - N/A   Overcast
8:04 PM 33.8 °F 28.6 °F 30.2 °F 87% 30.11 in 10.0 mi SW 5.8 mph - N/A   Overcast
8:39 PM 33.8 °F 29.6 °F 30.2 °F 87% 30.11 in 10.0 mi Variable 4.6 mph - N/A   Overcast
8:53 PM 34.0 °F 31.0 °F 30.9 °F 89% 30.12 in 10.0 mi SSW 3.5 mph - N/A   Overcast
9:10 PM 35.6 °F 30.7 °F 30.2 °F 81% 30.10 in 10.0 mi SSW 5.8 mph - N/A   Overcast
10:05 PM 35.6 °F 32.8 °F 30.2 °F 81% 30.09 in 10.0 mi WSW 3.5 mph - N/A   Overcast
11:51 PM 33.8 °F 29.6 °F 30.2 °F 87% 30.10 in 2.5 mi SW 4.6 mph - 0.01 in Snow Light Snow
11:53 PM 34.0 °F 29.8 °F 30.9 °F 89% 30.12 in 2.5 mi SW 4.6 mph - 0.01 in Snow Light Snow